Location: Gradaro
(45.0833°N, 10.8833°E)
Time: 20:42:17
(UTC+00:00)

FENGYUN 1C DEB - Pass Details

Date: 28 June 2021
Orbit: 744 x 851 km, 99.4° (Epoch: 27 July)

Event Time Altitude Azimuth Distance (km) Brightness Sun altitude
Exits shadow 23:57:11 45° 188° (S) 1,102 ? -21.2°
Maximum altitude 23:58:47 70° 256° (WSW) 865 ? -21.1°
Drops below altitude 10° 00:04:02 10° 340° (NNW) 2,376 ? -21.0°
Sets 00:06:21 0° 343° (NNW) 3,293 ? -20.9°
